Theta_e
337 337 336 337 337 338 338 339 338 338 338 338 337 337 337 336 336 336 335 335 334 333 334 334 333 333 334 333 333 333 333 334 334 334 334 334 334 333 333 333 333 333 334 334 334 334 334 334 333 334 334 334 334 333 333 332 332 332 332 332 332 330 330 330 329 328 328 328 327 327 327 326 326 325 325 324 322 321 323 326 326 325 325 326 328
338 337 336 337 337 338 339 339 338 338 338 338 337 336 336 335 335 335 335 335 334 332 333 334 333 333 333 333 333 333 334 333 333 332 331 332 332 332 331 332 332 332 333 334 334 335 335 334 334 334 334 334 334 333 333 333 333 332 332 332 332 332 330 330 329 328 329 329 328 328 327 327 327 326 326 326 324 321 321 323 325 325 324 325 326
337 337 336 337 338 338 339 339 338 338 338 337 337 336 335 335 335 335 334 334 334 332 332 333 333 333 332 332 332 332 332 330 329 329 329 329 329 330 329 329 330 331 331 332 333 334 334 333 334 334 333 333 333 333 333 333 333 332 332 331 332 331 330 330 330 329 330 330 329 328 328 327 327 327 326 325 325 324 321 321 323 324 324 324 325
337 337 337 338 339 339 339 339 339 338 337 337 337 336 336 336 335 334 334 333 333 332 331 331 331 332 332 332 331 329 327 326 326 326 326 326 325 326 326 326 327 328 328 329 331 332 332 331 332 332 332 332 332 332 332 332 331 331 330 330 330 331 330 330 330 330 330 330 330 329 328 327 327 327 326 325 325 325 324 321 321 322 323 323 324
337 337 338 339 338 339 339 339 339 338 337 337 336 336 336 335 334 333 333 332 331 331 330 330 331 332 331 330 327 324 323 323 323 323 324 323 322 321 321 321 321 323 324 326 327 328 328 328 328 328 329 330 331 331 331 331 330 329 328 328 329 329 330 329 329 329 330 330 330 330 329 328 328 327 327 326 325 325 325 323 321 321 321 322 322
337 337 337 338 338 338 339 338 338 337 336 336 335 335 335 334 333 332 332 331 331 330 329 329 331 331 328 326 323 320 320 321 320 321 321 321 319 317 316 315 315 317 319 321 324 324 325 324 325 325 326 327 328 328 329 329 328 328 327 327 327 327 328 328 328 327 328 329 329 330 330 329 328 327 327 327 326 325 325 325 324 323 321 321 320
336 337 337 338 338 338 338 337 336 336 335 335 334 334 333 333 332 332 331 331 330 328 328 330 330 328 325 322 319 318 318 318 317 317 317 318 318 316 314 311 310 311 312 314 317 320 322 322 322 323 323 324 323 324 325 326 326 326 326 325 324 324 325 326 327 327 327 327 327 328 328 329 328 328 328 328 327 326 325 324 325 325 323 321 319
337 337 337 338 338 337 337 336 336 335 335 334 333 333 332 332 331 331 330 330 329 327 328 329 327 323 320 318 316 315 315 315 314 314 314 315 315 314 312 310 309 308 308 307 309 311 314 316 318 319 319 319 319 319 320 322 322 322 322 322 321 321 322 323 324 325 325 326 326 325 326 327 328 329 328 328 328 327 326 325 324 325 325 322 319
336 336 337 337 337 337 336 336 335 335 334 333 332 331 331 330 330 329 328 328 327 326 328 328 324 319 316 313 312 311 310 311 311 311 311 311 311 311 310 309 308 307 306 305 305 306 307 309 311 312 314 315 315 316 316 317 318 318 319 319 318 316 318 319 321 322 323 324 325 324 324 325 326 327 328 328 329 328 327 326 324 325 325 323 320
336 336 336 336 336 335 335 335 334 334 333 332 331 330 329 328 328 327 327 327 325 325 327 326 323 318 313 310 308 306 306 306 307 308 308 308 308 308 308 307 306 305 303 302 303 304 304 304 305 306 307 308 310 311 312 313 314 315 315 316 316 313 313 316 318 320 321 321 322 323 324 324 324 325 327 328 328 328 328 327 325 324 326 324 321
336 336 335 335 335 335 334 334 333 332 331 331 330 329 328 327 327 326 325 325 323 323 325 325 322 317 311 308 305 304 303 303 304 305 305 305 305 305 305 305 304 302 300 299 299 299 300 300 301 301 301 302 303 304 306 307 308 310 310 312 314 313 311 312 315 317 318 319 320 321 322 322 322 323 324 326 326 327 328 328 326 325 326 325 323
334 334 334 334 334 334 333 333 332 331 330 330 329 328 327 327 326 325 323 322 319 321 324 324 321 317 313 309 306 303 301 300 301 301 302 303 304 304 304 303 302 302 300 298 297 297 297 297 297 298 298 298 299 299 301 302 302 304 306 307 309 311 310 310 312 313 315 316 317 318 319 320 320 321 321 322 322 323 325 327 327 326 326 326 324
333 334 334 334 333 333 333 332 331 330 329 328 327 326 326 325 325 323 321 318 316 320 324 324 323 321 317 314 310 306 302 299 299 300 302 303 303 303 303 301 301 302 301 299 298 297 297 296 296 296 296 297 297 297 298 299 299 300 302 302 303 306 308 307 309 311 312 313 314 315 316 318 318 319 319 319 319 320 322 324 326 327 327 326 326
333 333 333 332 332 331 331 330 329 328 327 326 325 325 324 323 323 320 317 314 313 317 322 324 325 325 323 321 316 312 307 302 299 299 301 303 303 302 302 301 301 301 302 301 299 298 298 298 297 296 296 297 297 297 297 298 299 298 299 298 299 302 305 305 306 308 310 311 312 312 313 315 316 316 317 317 317 318 319 322 324 326 327 327 326
330 330 329 329 329 328 328 327 327 326 325 324 323 323 322 321 321 318 315 313 311 313 318 322 325 326 325 325 323 322 318 310 303 300 300 301 302 302 301 301 300 300 301 301 300 299 298 298 297 296 296 296 296 297 298 299 299 300 299 297 297 300 302 302 303 306 308 309 310 310 309 311 313 314 315 315 315 315 316 318 320 322 325 326 326
327 327 326 326 326 325 325 325 324 324 323 322 321 320 318 318 319 316 313 313 311 310 312 317 320 323 326 326 325 324 321 316 309 303 300 301 301 302 301 301 300 300 300 300 300 299 298 298 297 297 296 297 297 298 299 299 300 302 301 298 297 299 299 298 300 303 305 307 308 308 307 308 309 310 312 313 313 313 312 314 317 319 321 323 324
325 324 324 324 324 323 323 322 322 321 320 319 317 316 315 316 317 314 311 312 311 308 307 309 312 315 319 323 323 317 313 315 312 305 301 300 300 301 301 300 300 300 299 299 299 300 299 298 298 297 297 297 297 298 298 299 300 303 302 299 297 298 298 297 297 299 302 305 307 307 307 307 308 308 309 311 311 311 310 310 313 316 318 319 322
323 322 322 322 321 321 321 320 320 319 317 315 313 312 313 314 313 311 308 307 308 308 305 302 302 302 304 307 310 311 311 313 312 307 302 300 299 300 300 300 300 299 299 298 298 299 299 298 298 298 297 297 297 297 298 298 300 302 302 299 297 296 297 296 296 297 299 302 305 306 306 307 307 307 308 309 309 309 309 307 308 312 315 316 319
321 320 320 320 320 319 319 318 317 315 313 311 311 312 312 312 311 309 307 305 306 308 306 303 300 298 296 296 297 301 305 308 310 308 305 301 299 299 299 300 300 299 298 298 298 298 298 298 297 297 297 297 297 297 298 298 298 301 301 299 297 296 296 296 296 296 296 299 302 304 305 306 306 307 307 307 307 307 307 306 305 307 311 312 315
319 318 318 318 318 317 316 315 313 311 310 309 310 310 309 308 306 305 304 303 302 304 304 304 304 300 297 297 297 297 298 300 303 306 305 302 300 300 299 299 299 299 299 298 297 298 298 298 297 297 297 297 298 297 298 298 298 300 300 298 298 297 296 296 296 296 296 297 299 301 303 305 305 306 306 306 305 306 306 306 304 304 306 308 310
317 317 316 316 315 315 313 312 310 309 309 308 307 307 305 304 302 300 299 298 297 297 298 300 302 301 300 301 301 301 300 299 301 303 303 302 300 300 300 300 300 299 299 299 298 297 297 298 297 297 297 297 297 297 298 298 298 298 298 297 297 297 295 296 295 296 296 296 297 299 301 303 304 305 305 304 304 304 305 305 305 304 303 304 306
316 315 315 314 313 312 310 309 308 308 307 306 305 304 302 300 298 296 295 295 295 295 295 296 296 297 299 302 303 303 303 302 302 302 303 302 300 300 301 301 301 300 299 299 298 297 297 297 297 297 297 297 297 297 297 297 298 297 296 296 296 296 295 295 295 295 295 296 296 297 299 301 303 303 303 303 303 303 303 304 305 304 300 300 303
314 314 313 312 311 309 308 307 307 307 305 304 303 301 299 297 295 295 295 295 294 294 294 294 294 294 296 299 300 301 302 302 302 302 302 302 302 301 300 300 300 299 298 298 298 297 297 296 297 296 297 296 296 296 296 297 297 296 295 296 296 295 295 295 295 295 295 295 295 296 298 300 301 302 302 302 301 302 302 303 303 302 299 297 300
313 313 312 310 309 307 306 306 306 305 304 302 300 298 296 295 295 295 294 294 294 294 293 293 294 294 294 295 297 299 300 300 300 300 301 301 302 301 299 299 300 298 297 298 298 297 297 296 296 296 296 296 296 296 296 297 297 296 295 296 296 296 296 295 295 295 295 295 295 295 297 298 299 300 300 300 300 300 301 301 301 301 299 297 297
312 312 310 308 307 306 306 305 304 303 302 300 298 296 295 295 294 294 294 294 293 293 293 293 293 293 293 294 296 297 297 297 298 299 300 300 301 301 300 299 300 299 298 298 298 297 297 296 296 296 296 295 295 296 296 296 297 295 295 296 296 296 296 295 295 295 295 295 294 294 295 296 297 298 298 298 298 298 299 300 299 300 300 298 296
311 310 309 308 306 305 305 304 302 301 299 298 296 295 294 294 294 294 293 293 293 292 292 292 293 292 293 294 295 295 295 296 297 298 299 300 300 302 302 300 300 300 299 298 298 297 297 296 296 296 296 296 295 296 296 296 296 295 295 297 297 296 295 295 295 295 294 294 294 294 294 294 295 296 296 296 296 297 298 299 299 299 299 298 296
310 309 308 307 306 304 303 302 300 299 298 296 295 294 294 293 293 293 293 292 292 292 292 292 292 292 292 293 294 295 296 296 297 297 298 299 299 300 301 301 301 301 301 300 299 298 296 296 296 296 295 295 295 296 296 296 297 295 295 297 297 296 295 295 295 294 294 294 294 294 294 294 294 294 294 295 296 298 298 299 299 299 298 298 297
309 309 308 307 305 304 302 301 299 298 297 295 294 294 293 293 293 292 292 292 292 292 292 292 292 291 291 292 293 295 296 296 297 297 297 298 298 298 299 299 300 300 300 300 300 298 296 296 296 296 295 295 295 296 296 296 296 295 296 297 296 296 296 295 294 294 294 294 294 294 294 294 294 294 294 296 297 298 298 298 298 298 298 298 297
309 308 307 306 305 303 302 300 298 297 296 295 294 293 293 293 293 292 292 292 292 291 291 291 291 291 291 291 293 294 295 295 296 297 297 297 297 298 298 298 298 298 298 298 299 299 296 296 296 295 295 295 295 295 296 296 296 294 295 296 296 296 296 295 295 295 294 294 294 294 294 294 294 294 295 296 296 297 297 297 298 298 297 297 297
309 307 306 305 304 302 301 299 297 296 295 294 293 293 293 293 293 293 292 292 291 291 291 291 291 291 291 292 293 294 294 295 295 296 296 297 297 297 297 297 297 297 297 297 298 298 297 296 295 295 295 295 295 295 296 296 295 294 295 296 296 296 295 295 295 295 294 294 294 294 294 294 294 294 294 295 296 296 297 297 297 297 297 297 297
308 307 305 304 303 302 300 298 295 295 294 294 293 293 293 294 294 293 292 292 292 292 291 291 291 292 292 293 294 294 294 295 295 295 295 295 296 296 296 296 296 296 297 297 297 298 297 297 296 295 295 295 295 296 296 296 295 294 295 296 296 295 295 295 295 295 295 294 294 294 294 294 294 294 294 295 295 296 296 296 296 296 296 296 296
308 306 305 304 303 301 300 297 295 294 294 294 293 293 294 294 294 293 292 292 292 292 291 291 292 293 293 294 294 294 295 295 295 295 295 295 295 295 295 296 296 296 296 297 297 297 297 297 296 296 295 295 295 296 296 296 295 295 295 296 296 295 295 296 295 295 295 295 294 294 294 294 294 294 294 295 295 295 295 295 295 294 295 295 294
307 306 305 304 302 301 300 297 295 295 296 295 295 294 294 294 293 293 293 294 293 293 292 292 292 294 294 294 294 294 295 295 295 295 295 295 295 295 295 296 296 296 296 296 297 297 296 296 296 296 295 296 296 296 296 296 296 295 295 295 296 296 296 296 296 296 295 295 294 294 294 294 294 294 294 294 294 294 294 294 294 294 294 294 294
307 306 305 304 303 302 300 298 297 297 297 297 296 296 295 293 292 293 294 294 294 294 293 293 293 294 294 294 294 294 294 295 295 295 294 295 295 295 295 295 296 296 296 296 296 296 296 296 296 296 295 295 296 296 295 295 296 296 295 295 296 296 296 296 296 296 296 295 294 294 294 294 294 294 294 294 294 294 294 294 294 294 294 294 294
306 306 305 304 303 302 301 300 298 298 298 298 297 297 296 294 294 294 295 295 295 294 294 294 294 294 295 295 295 295 295 295 295 295 294 295 295 295 295 295 295 295 295 296 296 295 295 296 296 296 295 296 296 296 296 296 296 296 295 296 296 296 296 296 296 296 296 295 294 294 294 295 295 295 295 295 295 294 294 294 294 294 293 293 293
305 305 305 304 303 302 301 300 299 299 299 298 297 296 295 295 295 295 296 296 295 295 294 294 294 295 295 295 295 295 296 295 295 295 295 295 295 295 295 295 295 295 295 295 295 295 295 296 296 295 295 296 296 296 296 296 296 295 296 296 296 296 296 296 296 296 296 295 295 295 295 295 295 295 295 295 295 294 294 294 294 293 293 293 293
305 305 304 304 303 302 301 301 300 299 299 298 297 295 295 295 296 296 296 296 296 295 294 294 295 295 295 295 295 295 296 296 295 295 295 295 295 295 295 295 295 295 295 295 295 295 295 296 296 296 296 296 296 296 296 295 295 296 296 296 296 296 296 296 296 296 296 296 296 295 295 295 295 295 295 295 295 294 294 294 294 293 293 293 293
305 304 304 303 303 302 302 301 300 299 300 299 297 296 296 296 296 297 297 297 296 295 295 294 295 295 295 295 295 296 296 296 296 295 295 295 295 295 295 295 294 295 295 295 294 295 295 296 296 296 296 296 296 296 296 295 296 296 296 296 296 296 296 296 296 296 296 296 296 296 295 295 295 295 295 295 295 294 294 294 294 293 293 293 293
304 304 304 303 303 302 302 301 300 299 299 298 297 297 297 296 297 297 297 297 296 295 295 295 295 295 295 295 296 296 297 296 296 295 294 295 295 295 295 294 295 295 295 294 294 295 295 296 296 296 296 296 296 296 296 296 296 296 295 295 296 296 296 296 296 296 296 296 296 296 295 295 295 295 295 295 295 294 294 294 294 294 294 294 294
304 304 303 303 303 302 302 301 300 299 298 298 297 297 297 297 297 297 297 297 296 296 295 295 295 295 295 295 296 297 296 294 294 293 293 293 295 295 295 294 295 295 295 294 295 295 295 295 296 296 296 296 296 296 296 296 296 296 295 295 296 296 295 295 295 296 296 296 296 296 295 295 295 295 295 295 295 295 294 294 294 294 294 294 293
304 303 303 303 302 302 302 301 301 299 297 296 296 297 298 298 298 298 297 297 297 297 296 295 295 295 295 295 295 295 293 292 292 292 292 292 293 294 293 293 294 294 294 294 294 295 295 295 296 295 296 296 296 295 296 296 296 296 295 295 295 295 295 295 295 296 296 296 296 295 295 295 295 295 295 295 295 295 294 294 294 294 294 294 293
303 303 303 302 302 302 302 301 301 298 296 295 297 298 298 298 298 297 298 297 297 297 296 296 295 295 295 295 294 293 292 292 292 292 292 292 292 292 291 291 291 292 293 294 294 294 295 295 295 295 296 296 296 295 295 296 295 295 295 295 295 295 295 295 296 296 296 296 295 295 295 295 295 295 295 295 295 294 294 294 294 294 293 293 292
303 303 303 302 302 302 302 301 300 298 296 296 298 298 298 298 298 298 298 297 297 297 297 296 296 295 295 295 294 293 292 292 292 292 292 292 291 291 290 290 289 289 290 292 293 294 294 295 295 295 295 296 295 295 295 295 295 295 295 295 295 295 295 295 296 296 296 295 295 295 295 295 294 294 294 294 294 294 294 294 293 293 292 292 292
303 303 303 302 302 302 302 301 300 299 298 298 299 299 299 298 298 298 298 298 297 297 297 297 296 296 295 295 294 293 292 292 292 292 292 291 291 290 289 289 289 289 289 290 290 292 293 294 295 295 295 295 295 295 295 295 295 295 295 295 295 295 295 295 295 295 295 295 295 295 295 294 294 294 294 294 294 294 294 293 293 293 292 292 292
303 303 302 302 302 302 301 301 300 299 300 300 300 299 299 299 298 298 298 298 298 298 297 297 297 296 295 295 295 294 293 292 292 292 292 291 290 289 289 289 289 289 289 289 289 289 290 292 294 294 294 294 295 295 294 294 294 295 295 295 295 295 295 295 295 295 295 295 295 294 294 294 293 293 293 294 294 293 293 293 293 292 292 292 292
302 302 302 302 302 302 301 300 300 300 300 300 300 299 299 299 299 298 298 299 298 298 297 297 297 296 295 294 295 295 293 292 292 292 292 291 290 289 289 289 288 288 288 289 289 288 289 290 292 292 292 293 293 293 292 292 293 294 294 294 294 295 295 294 294 295 295 295 294 294 294 293 293 293 293 293 293 293 293 293 292 292 292 292 292
301 301 302 302 302 301 301 301 300 300 300 300 299 299 299 298 298 298 298 298 298 299 298 297 297 296 294 293 295 295 294 293 292 292 292 291 290 289 290 290 289 289 289 288 288 288 288 288 289 290 290 291 292 292 292 292 292 292 292 293 294 294 294 294 294 295 295 295 294 294 293 293 293 293 293 293 293 293 293 293 292 292 292 292 291
299 301 302 302 302 301 301 301 300 300 300 300 299 299 298 298 298 298 298 297 297 298 297 296 297 296 293 293 295 295 293 293 293 292 292 291 290 290 290 290 290 291 291 289 289 288 288 288 288 288 289 290 291 292 292 292 292 291 292 294 294 294 294 294 294 295 295 295 294 293 293 293 293 293 293 292 292 292 293 293 292 292 292 292 292
297 299 301 301 301 301 301 300 300 300 300 300 299 299 298 298 298 298 299 298 297 298 297 296 296 296 293 293 294 294 293 294 293 292 292 291 291 291 290 290 291 292 292 291 290 290 289 289 289 288 288 289 289 290 291 292 292 292 293 294 294 293 294 294 294 294 295 295 294 293 293 293 293 292 292 292 292 292 292 292 292 292 292 292 292
295 297 300 301 301 301 301 300 300 300 300 300 299 299 299 299 298 298 299 298 297 297 297 296 296 296 294 293 293 293 293 294 293 293 292 291 291 291 290 291 292 293 292 291 291 292 291 291 291 290 290 289 289 289 290 291 292 292 293 294 294 293 294 294 294 294 294 295 294 293 292 293 293 292 292 292 292 292 292 292 292 292 292 293 293
293 295 298 299 300 300 300 300 300 300 300 299 299 299 299 299 298 298 298 298 297 297 297 297 296 296 294 293 293 293 293 294 293 293 292 292 291 291 290 292 294 294 292 291 291 291 291 292 291 291 291 290 289 289 290 291 292 292 292 293 293 294 294 294 294 294 294 295 294 293 292 293 292 292 292 292 292 292 292 291 291 292 292 293 293
Wind_Speed
4 3 2 2 2 2 3 3 4 4 4 4 4 5 6 5 5 4 5 5 5 6 6 7 7 7 7 7 6 6 6 6 7 7 7 7 9 11 10 8 8 8 8 9 9 10 10 11 10 8 7 8 9 8 9 10 10 11 12 13 13 13 12 12 12 11 11 11 11 11 11 10 10 10 10 9 10 12 13 12 11 10 9 8 7
2 2 1 1 2 2 3 3 3 4 3 3 4 5 5 5 4 4 5 5 6 7 7 7 7 8 7 7 7 7 7 8 9 10 10 9 8 12 13 12 11 11 11 12 12 12 13 13 12 10 8 8 9 9 9 10 11 12 12 14 14 14 13 13 13 12 12 12 12 12 12 12 11 10 10 10 11 11 12 13 13 12 11 10 8
1 1 1 2 3 3 3 3 3 3 3 3 4 5 4 4 4 5 5 6 7 8 8 7 7 7 7 7 8 8 9 10 12 12 13 12 10 10 13 14 12 12 11 11 12 13 13 15 15 13 12 12 12 11 10 10 10 11 12 12 12 12 12 12 13 13 13 14 14 14 13 13 12 12 11 10 12 12 12 13 14 14 13 12 10
0 1 3 4 4 4 4 3 3 3 3 3 3 4 4 4 5 5 6 7 7 8 8 7 7 7 7 8 9 11 13 14 15 15 16 17 16 12 13 16 15 14 13 11 11 11 11 13 14 13 14 15 15 14 13 13 12 12 14 13 12 11 10 10 12 14 15 15 16 16 15 14 13 13 13 12 12 13 13 12 14 16 16 14 13
1 2 4 4 4 4 4 3 3 2 3 3 4 4 3 3 5 5 6 7 8 8 8 8 8 8 9 11 13 15 16 17 18 19 19 20 20 19 18 19 19 18 17 14 12 11 10 11 11 10 12 13 14 15 15 15 14 14 16 16 16 15 13 11 11 11 13 16 17 17 17 16 15 14 14 14 14 14 14 14 13 15 16 16 15
2 3 4 5 5 5 4 3 3 3 3 4 4 3 3 3 4 6 6 7 9 9 9 9 8 8 11 14 16 18 20 20 21 20 20 21 21 22 21 21 21 20 19 17 15 13 12 11 10 9 10 9 10 12 13 15 17 16 15 15 15 17 17 16 15 13 11 12 13 15 17 18 17 16 15 15 16 16 16 16 14 14 15 16 17
3 3 5 5 5 5 4 3 3 3 3 4 3 3 4 4 5 6 6 7 9 9 9 8 9 11 14 17 19 21 21 22 22 21 21 21 21 21 21 21 21 21 20 19 17 15 14 12 11 10 10 10 10 13 13 13 16 17 17 15 14 15 16 16 16 16 16 14 13 12 14 16 17 17 17 17 17 18 17 17 16 15 15 15 17
4 4 5 5 5 4 4 3 3 4 3 4 4 4 4 5 5 5 6 7 7 8 8 8 12 16 18 20 21 22 22 22 22 21 21 21 21 20 20 20 20 20 20 19 18 17 15 14 13 11 11 12 14 17 17 16 15 14 16 16 14 13 14 16 17 16 16 17 16 15 14 13 16 19 20 19 18 20 19 17 17 17 16 15 16
4 4 5 5 4 4 4 4 3 4 4 4 4 4 4 5 5 6 6 7 6 7 8 9 13 18 21 22 23 23 23 22 21 21 20 20 20 19 19 18 19 19 19 19 18 17 16 15 14 13 13 13 14 16 18 20 19 16 18 19 15 15 15 16 16 15 16 16 18 18 16 15 14 16 19 20 21 21 19 18 19 18 17 16 15
5 5 5 4 4 4 4 3 3 3 3 4 4 4 4 4 5 6 6 6 5 6 8 10 13 17 21 23 23 24 23 22 21 20 20 19 19 19 18 18 18 19 20 19 18 17 16 15 15 14 14 14 13 14 15 18 20 21 21 21 19 17 16 16 14 14 17 17 18 19 17 17 17 15 15 17 22 23 21 20 21 20 18 17 16
7 6 5 4 4 4 3 3 3 3 3 3 3 3 4 4 5 6 6 6 4 4 8 11 14 17 22 24 24 24 23 22 21 21 20 19 19 18 17 17 18 19 21 21 20 19 18 17 17 16 15 15 14 14 14 15 18 21 23 22 22 21 19 19 16 15 18 18 17 18 19 19 17 16 14 11 14 18 23 24 23 21 20 19 17
6 4 3 3 3 3 2 2 2 2 3 3 3 3 3 4 4 5 5 5 3 6 9 11 15 18 20 23 24 24 24 24 22 21 21 19 18 17 16 16 17 18 20 21 21 21 21 20 19 18 16 16 15 14 15 15 17 20 23 22 22 23 21 21 21 18 18 19 18 16 18 20 19 17 16 14 14 15 18 23 26 24 22 22 20
4 3 2 2 2 2 2 2 2 3 4 4 4 4 4 4 4 4 3 3 4 8 11 12 12 13 14 16 19 22 25 25 23 21 19 18 17 17 16 16 16 16 17 19 21 21 22 22 21 20 19 18 18 17 17 17 18 20 22 22 22 23 23 22 23 22 20 19 19 16 16 19 19 16 17 19 18 18 19 18 23 27 25 23 21
4 3 2 1 1 1 1 2 3 4 5 5 5 5 5 4 3 2 3 5 8 8 13 12 7 8 9 8 10 13 19 24 24 21 18 16 15 16 16 16 16 15 15 17 19 20 21 21 22 22 21 20 20 19 20 19 20 22 23 23 23 23 24 23 22 23 22 21 20 18 15 18 20 16 16 19 20 20 20 19 16 16 21 24 23
4 3 1 1 1 1 2 3 4 5 5 6 6 6 5 3 1 3 5 8 11 9 10 9 5 6 8 5 4 4 8 15 19 19 18 16 14 14 14 15 15 14 14 15 17 19 19 20 22 23 23 22 22 20 20 20 20 22 24 24 24 24 24 24 23 23 23 22 22 21 18 18 19 17 17 20 20 21 20 19 20 13 13 21 24
3 1 1 1 2 2 2 3 4 4 5 5 5 5 3 1 3 5 6 7 10 13 9 5 4 5 5 2 2 2 2 7 11 13 13 15 15 14 13 14 14 14 15 15 15 16 18 20 21 23 23 22 21 20 19 19 20 21 23 25 25 25 24 24 24 24 24 23 23 23 21 21 20 17 18 23 22 21 20 19 20 18 14 16 22
1 0 1 1 1 2 2 2 3 3 4 4 3 1 1 3 5 6 7 8 9 13 15 13 9 5 2 2 1 0 2 6 8 8 10 12 14 14 14 14 14 15 15 16 15 14 15 17 18 19 21 21 20 20 19 19 18 18 21 25 25 25 25 24 24 23 24 24 24 24 23 23 23 19 19 23 23 22 21 20 20 19 18 17 18
1 1 1 1 1 1 1 1 2 2 1 0 2 4 5 7 7 7 8 10 11 12 15 18 18 16 13 10 6 3 3 4 4 4 7 10 11 12 13 14 14 15 15 15 16 15 14 14 15 16 18 19 19 19 18 19 18 16 18 24 25 25 25 25 24 23 23 24 24 24 24 23 23 22 22 22 23 23 22 22 21 20 21 20 18
2 2 2 2 2 2 2 1 1 2 3 5 7 8 8 8 8 8 8 10 11 10 10 14 17 20 21 20 16 12 7 4 2 3 5 7 9 10 12 12 13 14 15 14 14 15 14 13 13 14 15 16 17 17 17 18 18 15 17 22 24 25 25 25 25 24 23 23 24 25 24 24 23 23 23 22 22 22 23 23 22 21 21 22 21
3 3 4 4 3 3 3 3 5 7 8 9 11 11 11 10 9 9 10 11 13 13 11 10 11 14 19 21 21 19 17 14 9 4 3 4 5 7 9 10 11 12 12 13 13 13 13 12 13 13 14 14 14 16 15 16 17 15 16 21 23 24 25 25 26 26 25 24 24 25 25 25 24 23 23 23 23 23 23 23 22 21 22 22 22
5 5 5 5 5 5 5 6 9 11 12 13 13 13 12 12 12 13 15 16 18 19 18 16 13 11 12 12 13 15 16 16 13 9 6 4 4 4 5 5 7 9 9 9 11 12 12 12 13 14 14 14 15 15 15 16 16 16 18 21 22 24 25 26 26 27 27 26 26 26 26 25 25 24 23 23 23 23 23 23 22 21 21 22 22
6 7 6 6 6 6 7 9 11 13 14 14 14 14 13 14 15 17 19 21 22 24 24 23 21 19 16 11 9 9 10 11 11 10 8 6 5 4 3 3 5 6 6 6 8 11 13 12 13 15 15 15 16 16 16 16 16 18 21 23 23 25 26 26 27 28 28 28 28 28 27 26 26 25 24 24 24 24 24 23 23 22 20 21 22
8 8 7 7 7 8 10 11 13 14 14 15 15 15 16 17 18 19 21 23 24 25 26 26 26 26 23 19 16 13 11 10 10 10 9 7 5 4 4 4 5 6 6 6 5 9 13 13 14 15 16 17 17 17 18 17 16 20 23 23 25 26 27 28 28 29 29 28 29 29 28 27 27 26 26 25 25 24 24 23 23 23 21 20 21
9 9 9 8 9 11 12 13 14 15 15 15 16 17 18 19 21 22 23 24 25 25 25 26 26 26 26 24 21 18 15 14 12 11 10 8 6 5 5 3 3 5 6 6 5 7 11 14 14 15 17 18 19 19 19 17 17 21 25 24 26 28 28 29 29 30 30 29 29 30 29 28 27 27 27 27 26 25 24 23 24 25 23 22 22
10 10 11 10 11 13 14 14 15 15 15 16 17 18 20 21 22 23 24 24 24 25 26 26 26 26 26 24 22 20 19 17 15 12 10 8 7 6 5 3 3 5 6 6 8 7 9 13 14 14 16 19 20 20 19 19 19 23 27 26 27 29 30 31 31 31 31 30 30 30 30 30 29 28 29 29 29 26 24 24 24 24 24 23 23
12 12 13 13 13 14 14 14 15 15 16 17 18 20 22 23 23 24 24 24 24 25 26 25 25 25 25 24 23 21 20 18 16 13 10 9 9 8 5 2 2 4 5 6 8 8 11 14 13 13 16 19 21 19 20 20 20 26 30 25 25 30 32 32 32 32 31 30 31 31 30 30 31 31 31 31 30 28 26 25 24 23 24 24 24
14 14 14 14 14 15 14 14 15 15 16 18 20 21 23 24 24 24 25 25 25 25 25 25 25 25 24 24 23 21 18 16 14 13 12 11 10 10 10 6 2 4 5 6 7 8 12 16 14 13 18 21 21 20 22 21 20 28 31 24 25 30 31 32 34 33 31 31 31 30 30 30 31 32 33 32 30 29 28 26 24 22 23 24 24
16 16 16 15 15 15 15 15 15 16 18 20 21 22 23 24 24 25 25 24 24 25 24 24 24 24 24 23 22 18 16 14 13 12 11 11 12 12 14 11 7 5 5 6 8 8 13 17 16 17 20 23 22 21 23 20 22 30 30 25 28 29 29 33 34 31 31 31 30 30 31 31 31 32 32 32 30 29 29 27 24 22 22 23 24
17 17 17 16 16 16 16 16 16 17 19 21 22 23 24 24 24 24 24 24 24 24 24 24 23 23 23 23 20 17 15 14 12 12 11 12 13 13 14 13 10 7 5 6 6 9 15 18 16 19 22 23 23 23 22 20 25 32 30 27 27 26 31 35 32 30 31 31 31 31 32 32 32 32 32 32 32 31 29 28 26 24 22 23 23
17 18 18 17 17 17 17 17 17 19 21 21 22 23 23 23 23 23 23 23 24 24 23 22 23 22 22 22 20 18 17 15 14 14 13 13 12 12 12 11 10 8 6 6 5 7 14 17 17 19 21 23 23 23 21 20 27 34 30 26 26 28 35 35 30 31 31 30 31 32 33 33 33 33 33 32 32 31 30 28 27 26 25 23 22
18 19 18 18 18 18 17 18 19 21 21 22 22 22 22 22 22 22 22 22 23 23 22 22 22 21 21 20 19 18 17 16 16 15 15 14 12 11 10 9 8 7 7 7 6 7 12 15 18 18 20 23 22 20 21 21 27 33 29 25 26 31 34 31 30 32 30 31 33 33 34 34 33 34 33 33 31 30 30 30 29 28 27 26 25
19 20 19 19 19 18 18 19 21 22 22 22 22 22 21 21 21 22 22 22 22 22 21 21 20 19 19 18 17 16 15 14 14 14 14 13 11 10 9 8 6 6 7 8 8 10 13 13 16 18 19 21 21 20 21 22 25 30 29 26 27 29 29 27 30 31 32 33 34 34 35 35 33 33 33 32 31 31 32 32 32 31 30 29 29
19 20 19 19 19 19 19 20 21 21 22 22 21 20 20 21 21 22 21 20 21 20 19 19 19 17 16 16 16 16 15 14 13 13 12 12 10 9 9 8 7 7 7 8 9 13 15 14 15 18 19 19 20 20 22 23 25 27 28 27 27 26 26 27 29 31 33 35 35 35 35 33 32 32 32 32 32 32 33 33 34 34 33 32 31
20 20 20 20 20 20 20 20 20 20 20 20 20 19 19 21 22 21 20 19 19 19 17 17 17 16 15 15 15 15 15 15 14 13 13 11 10 9 9 8 8 7 7 8 10 12 15 16 16 17 19 19 20 21 23 24 24 26 27 28 27 26 26 27 29 31 33 35 35 35 34 33 32 32 33 33 32 33 33 34 35 35 33 33 31
21 20 20 21 21 20 20 20 20 20 19 19 18 18 19 19 20 20 19 18 18 17 16 15 15 15 14 14 14 13 13 14 14 13 13 11 10 9 9 9 9 9 8 8 9 11 14 17 16 16 19 20 20 21 23 23 23 25 26 27 27 27 27 28 29 31 33 36 36 34 33 33 33 33 34 33 33 34 34 34 34 34 33 32 31
22 22 21 21 21 21 21 20 20 19 19 18 17 17 18 18 18 18 17 17 16 16 15 15 14 14 14 14 13 12 12 13 13 12 12 11 10 10 10 10 10 11 11 10 10 11 13 15 16 17 18 19 21 22 23 23 24 25 24 26 28 29 29 29 29 30 33 35 35 33 33 34 34 34 34 33 33 34 34 34 32 31 31 30 28
22 22 22 22 22 22 21 20 20 19 19 18 18 19 19 19 18 17 16 16 15 15 15 15 14 13 13 13 12 12 12 12 12 12 12 11 10 10 11 12 12 13 13 11 11 12 13 15 16 16 17 18 20 21 23 26 27 25 23 25 28 30 31 29 28 30 34 35 34 34 34 34 34 34 33 33 32 33 33 31 29 29 29 29 27
23 23 23 23 23 22 21 20 20 20 19 18 19 20 20 19 18 16 15 15 15 15 14 14 14 13 13 12 12 11 11 11 11 11 12 12 11 11 13 13 13 14 14 13 13 13 13 14 15 16 17 18 19 20 23 26 27 27 28 30 29 29 30 30 30 32 33 34 34 35 35 34 34 33 33 32 31 31 30 29 28 28 28 28 27
24 24 24 24 23 22 21 20 20 20 20 20 20 20 19 18 17 16 15 14 14 14 14 13 13 12 12 12 11 11 11 10 10 11 12 12 11 12 13 14 14 15 15 14 14 14 14 15 15 16 17 18 18 21 24 25 24 25 29 32 32 31 30 30 32 33 33 34 35 34 33 32 32 31 31 30 29 28 28 28 27 27 26 25 25
24 24 24 23 23 22 21 21 20 20 21 22 21 20 19 17 15 15 14 14 13 13 13 12 12 11 11 11 11 10 10 10 11 11 12 13 12 11 13 14 14 14 14 14 15 14 14 15 15 16 17 18 19 21 24 25 25 27 28 28 29 30 30 30 31 30 31 34 36 34 32 32 31 31 30 29 28 27 28 28 27 25 23 23 24
24 24 24 23 23 23 23 21 20 20 22 24 22 20 18 16 15 14 13 12 12 12 11 11 10 10 9 10 11 10 10 11 11 10 12 13 13 13 14 15 15 15 14 14 14 14 14 15 15 17 18 18 20 23 24 25 26 28 29 28 27 27 28 30 31 29 29 32 35 34 33 34 33 32 30 29 29 29 28 27 25 24 24 26 28
24 24 24 23 24 24 24 22 21 21 23 23 21 19 17 16 14 13 12 11 11 10 10 10 9 8 8 9 10 9 9 10 10 10 11 13 14 15 15 15 15 15 14 14 14 14 15 15 15 17 18 18 21 23 23 24 26 27 29 29 28 29 28 27 27 28 28 31 35 35 33 33 34 34 32 31 31 30 29 28 26 28 30 32 34
25 24 25 24 25 25 24 23 22 22 23 22 19 17 15 14 13 12 12 11 10 9 9 8 8 7 7 7 7 9 10 10 10 10 12 13 15 16 15 15 15 15 14 13 13 14 14 15 15 16 17 19 21 22 22 25 26 26 27 27 28 30 28 25 25 27 30 34 37 35 32 32 33 34 33 31 31 31 29 29 30 32 34 34 34
25 25 25 25 25 25 24 23 22 23 22 20 18 17 15 13 12 12 11 10 10 9 7 7 7 6 5 5 6 8 10 10 10 11 13 15 17 17 15 15 15 15 14 13 13 13 14 14 15 16 17 18 20 22 24 25 26 26 26 27 28 29 28 26 27 30 34 38 37 33 32 33 32 33 33 31 31 31 31 31 33 34 34 34 34
26 26 26 26 26 25 24 23 22 23 22 20 18 17 15 14 13 12 11 10 9 8 7 6 6 5 4 3 5 7 9 10 11 12 14 16 18 17 17 17 17 17 16 16 16 16 15 14 14 16 18 18 19 22 26 27 26 26 26 27 29 29 28 28 30 33 36 37 36 34 33 32 32 32 33 32 31 32 32 33 34 34 34 34 32
26 27 27 26 26 25 24 23 22 22 21 19 18 17 15 14 13 13 11 10 10 9 7 6 4 4 3 3 4 5 7 9 11 13 14 17 19 19 19 19 18 18 17 18 19 19 19 17 15 17 19 19 20 24 29 29 25 24 26 29 29 28 28 29 30 32 33 33 35 33 30 31 33 33 33 33 33 33 33 33 34 33 32 31 30
27 27 27 27 26 26 25 23 22 22 20 19 18 17 16 14 13 12 10 10 10 10 8 7 4 3 3 3 3 5 7 8 11 13 15 17 18 18 18 19 19 19 19 19 19 20 21 20 19 19 20 21 22 24 27 29 27 27 29 27 26 26 27 27 28 30 30 30 32 32 29 31 34 34 34 35 34 33 33 32 32 31 30 30 30
26 27 27 27 26 26 25 24 22 22 21 19 18 17 16 14 14 12 10 10 11 11 10 8 5 3 2 2 3 4 6 8 10 12 14 15 16 17 17 19 20 19 18 19 20 20 21 21 20 20 20 20 21 22 24 26 29 31 29 24 23 24 25 25 27 30 31 29 32 35 33 32 34 34 34 35 34 33 32 32 31 30 30 31 32
26 27 27 27 26 26 25 24 23 22 21 20 19 17 16 15 14 12 11 11 12 12 11 9 6 3 2 1 2 3 5 7 9 11 13 14 15 15 16 19 20 18 18 22 22 21 21 21 20 20 21 21 22 23 24 25 30 32 26 21 24 26 24 22 24 30 31 28 31 38 35 32 34 35 35 34 33 32 32 32 33 32 31 30 29
25 26 26 26 26 25 24 24 23 22 21 20 19 17 16 15 14 13 11 11 12 12 12 10 8 5 3 2 1 2 4 6 8 10 11 13 14 14 15 17 16 15 18 23 24 23 22 22 22 23 23 24 25 27 27 27 31 33 27 23 24 25 23 22 24 28 28 25 32 40 36 31 33 35 35 35 31 29 31 33 33 33 30 28 27
24 25 25 26 25 24 23 22 21 21 20 19 18 17 16 15 14 13 12 11 12 13 12 10 9 6 4 3 1 1 4 6 7 9 10 11 12 12 13 13 12 13 16 20 22 23 23 23 25 26 27 29 30 30 31 31 32 34 33 29 25 21 22 24 25 25 20 21 34 43 36 30 32 34 35 31 22 23 31 34 32 31 29 27 26
Wind_Direction
68 67 69 84 88 88 99 102 97 90 77 52 38 29 27 26 25 25 21 25 26 26 29 24 18 14 16 21 21 22 27 33 38 41 46 54 54 45 39 37 36 35 36 35 30 25 23 21 15 9 2 348 339 335 338 334 330 325 315 310 305 297 291 285 286 290 290 290 289 287 288 289 290 295 296 297 293 277 268 270 274 275 275 271 262
50 52 88 124 110 105 112 107 100 90 70 38 30 29 28 23 20 21 19 23 21 20 25 23 18 16 17 23 27 34 43 52 57 60 62 66 67 58 56 59 57 56 59 63 60 51 42 37 32 25 18 7 359 354 351 340 334 332 323 319 316 307 296 285 282 286 287 287 287 285 288 287 284 287 286 285 291 284 269 263 268 273 271 267 262
18 59 139 145 132 125 120 114 104 85 63 35 23 20 20 18 20 17 14 20 19 17 21 22 24 25 25 34 47 59 67 71 73 75 75 74 73 66 63 65 65 65 68 77 82 77 66 58 54 48 42 36 27 20 14 5 352 343 337 334 333 325 308 290 281 282 286 285 282 280 283 288 288 286 282 281 285 283 275 263 261 266 268 264 262
354 140 142 138 133 130 122 115 103 85 60 32 22 19 22 24 22 18 16 21 25 25 25 27 36 41 46 60 72 78 82 84 84 83 83 81 77 73 68 64 63 66 70 80 90 92 85 76 71 68 64 58 48 40 36 31 18 8 9 11 11 2 339 317 298 287 284 284 284 285 284 286 287 284 279 279 279 278 278 270 259 259 262 260 258
161 144 137 132 131 128 122 113 98 77 45 28 25 19 23 28 24 22 19 21 30 34 34 40 47 54 71 84 87 88 89 89 88 87 86 84 81 76 72 70 67 68 69 73 81 83 82 79 77 75 73 69 60 50 44 37 28 23 26 32 36 31 19 7 346 316 293 284 287 290 289 285 281 277 277 277 275 274 274 274 268 259 257 256 255
148 141 134 132 130 126 119 110 93 65 40 31 27 16 18 29 30 26 21 26 35 36 41 52 60 73 89 94 94 93 92 91 88 87 85 85 85 79 73 71 71 71 70 68 71 74 75 76 74 71 70 69 61 51 45 39 35 33 30 33 40 38 32 28 20 9 346 314 299 291 284 283 280 275 273 273 271 269 268 270 272 266 259 255 252
144 139 135 135 133 126 113 102 82 59 41 33 33 26 26 30 35 33 27 32 38 40 49 65 82 96 100 99 97 94 93 92 88 85 84 83 83 81 74 70 71 73 72 70 69 70 72 74 74 73 70 67 55 42 38 37 35 34 29 27 31 30 27 25 23 22 17 4 347 323 298 284 279 278 275 270 267 266 266 265 266 266 264 258 250
146 139 136 135 129 121 108 95 73 53 35 35 37 35 36 30 31 33 28 32 41 52 64 85 98 102 103 101 97 94 92 90 88 84 83 83 80 78 74 69 67 70 70 69 68 66 67 67 65 65 63 61 52 40 36 32 27 26 25 19 15 16 18 19 18 17 15 12 6 357 341 310 282 275 272 265 261 261 262 263 264 263 262 261 251
144 140 135 128 115 106 99 85 64 46 33 35 33 30 30 19 21 22 20 26 41 66 85 101 103 100 100 98 94 92 90 89 88 85 81 80 77 75 73 67 62 62 61 61 61 59 58 57 56 54 51 49 46 40 36 32 26 23 22 17 10 11 14 13 12 10 6 7 8 5 357 344 321 297 283 270 261 258 258 260 261 259 257 260 252
125 121 115 107 97 91 87 75 60 46 36 33 21 14 7 4 15 10 10 18 30 81 105 110 104 98 95 94 91 88 86 86 86 83 80 77 73 71 69 65 60 56 54 52 51 49 48 47 46 44 41 38 36 35 33 32 29 25 23 21 16 12 11 9 7 7 3 1 6 9 5 356 348 335 314 287 270 261 256 257 258 255 252 255 250
108 103 92 85 81 74 70 66 60 45 30 17 357 346 343 355 7 3 8 5 7 101 120 117 107 98 93 89 85 84 82 80 80 80 79 78 74 69 64 61 59 55 52 50 47 45 42 41 40 37 35 32 30 29 27 27 26 24 21 20 18 14 12 12 10 6 3 359 358 4 7 1 355 351 345 327 303 282 266 257 255 253 249 250 249
101 95 76 67 67 56 49 45 37 16 357 345 332 326 333 344 351 357 8 359 19 121 131 126 111 98 93 88 82 80 78 76 75 75 75 75 72 66 60 58 57 55 52 49 47 45 42 40 38 35 32 28 26 25 25 23 22 21 18 17 17 14 12 12 12 7 2 360 355 355 3 2 358 355 350 347 345 331 300 270 255 250 247 245 248
108 110 88 67 53 30 22 5 350 340 333 327 323 319 323 328 334 355 12 27 79 126 143 140 127 112 100 92 83 77 73 71 69 68 68 67 65 63 60 56 54 55 52 48 46 45 43 41 39 37 33 29 26 24 24 22 20 19 16 14 14 13 12 10 10 9 4 0 355 350 357 359 356 355 351 344 338 338 334 305 267 251 246 245 244
127 125 105 81 41 9 356 340 330 326 325 320 317 313 312 312 317 27 63 76 74 119 156 162 165 157 141 121 103 84 72 66 63 63 63 62 61 61 59 55 53 53 52 49 46 44 42 40 39 39 36 31 28 26 25 24 22 20 15 14 13 11 10 8 7 7 4 2 357 349 349 355 354 352 350 342 335 335 342 340 315 268 249 251 246
117 109 85 32 349 346 336 328 320 316 319 314 310 304 300 299 239 111 97 88 67 83 152 176 192 181 177 172 154 134 90 70 61 57 58 60 59 59 58 54 52 52 51 49 45 43 42 40 40 40 38 34 31 28 26 24 24 21 16 15 15 12 9 7 5 5 3 360 358 353 348 348 348 348 349 342 334 335 338 344 345 326 268 258 253
102 78 24 342 326 337 329 322 317 311 314 308 303 301 294 231 156 142 117 100 75 67 87 129 157 179 199 197 161 181 115 88 74 57 54 59 58 59 58 54 52 51 50 48 45 43 41 39 40 39 39 35 30 27 23 22 22 19 14 13 15 12 9 7 5 3 2 359 356 355 352 349 343 340 347 346 336 332 336 340 342 334 310 280 263
85 29 356 343 327 344 336 326 322 313 314 304 291 306 120 135 147 149 128 112 97 79 73 80 97 114 106 77 146 127 72 119 108 67 55 58 57 57 56 54 52 51 50 47 44 42 38 36 35 34 35 32 29 26 22 20 20 15 10 10 11 10 8 7 5 2 0 358 356 355 353 351 348 342 343 345 339 333 332 335 338 333 327 314 285
50 48 40 23 32 19 6 358 338 322 330 17 136 125 124 132 139 139 128 116 107 93 82 80 82 83 81 77 79 77 89 153 150 100 76 63 57 57 55 54 54 53 51 47 43 41 37 33 31 30 29 28 27 25 21 18 18 14 7 7 8 8 7 4 3 2 360 357 354 354 352 350 349 347 345 343 340 337 333 330 332 334 332 326 310
71 81 93 95 86 75 66 64 92 115 122 128 128 128 128 128 131 129 124 120 113 104 93 85 81 80 82 83 84 88 92 104 120 137 116 78 60 59 56 54 55 54 52 47 44 40 36 32 27 25 24 23 22 21 18 14 15 10 1 4 5 5 5 2 360 0 359 357 353 350 350 349 347 346 344 342 340 338 336 331 327 329 331 327 321
92 104 109 106 97 97 102 113 126 125 125 126 120 120 120 116 116 113 112 115 112 110 103 94 90 87 85 83 83 83 83 82 76 71 109 100 78 68 59 57 56 53 51 46 42 37 33 29 24 19 16 15 14 13 12 8 9 4 356 360 0 360 2 359 357 358 356 355 352 348 346 346 345 344 342 342 341 339 338 336 330 326 325 324 321
105 112 109 107 103 104 115 124 128 128 125 120 115 114 114 113 111 108 106 105 103 103 100 96 97 98 92 85 83 82 78 76 70 63 68 78 80 72 61 64 61 53 46 41 39 33 28 25 22 18 15 12 8 6 5 2 3 358 355 358 356 355 358 356 354 354 352 352 349 346 345 342 341 341 340 339 339 338 337 337 334 326 320 321 319
116 113 109 106 108 111 122 129 128 127 123 118 116 115 113 112 110 109 105 102 99 97 95 92 90 90 88 83 79 78 72 65 58 56 58 61 70 70 56 57 61 55 41 32 32 28 24 21 17 15 13 10 6 3 360 358 359 356 356 359 356 354 356 354 352 350 349 349 346 343 341 339 338 337 337 337 337 336 336 335 334 328 318 315 315
121 116 114 111 116 123 129 131 128 127 123 120 119 116 115 113 110 107 103 99 96 93 90 88 86 83 81 77 73 70 69 63 53 50 52 52 55 57 53 46 51 52 34 23 26 23 21 19 14 12 8 5 2 359 357 355 353 354 356 357 356 354 353 351 349 347 346 345 342 339 337 334 334 334 333 334 334 334 333 331 331 329 321 312 310
125 122 122 123 129 131 132 133 131 128 125 122 120 118 117 114 109 105 100 96 94 91 89 86 83 81 77 75 74 70 69 66 59 54 53 47 39 44 49 40 48 50 29 17 19 14 15 15 11 9 5 1 358 355 355 353 349 352 355 356 356 354 352 349 346 344 344 342 338 336 334 332 331 330 330 331 331 331 330 329 328 329 323 313 308
134 132 132 136 137 135 135 135 132 129 125 122 121 120 118 113 108 103 98 96 93 90 88 86 83 82 79 77 74 71 68 65 62 58 53 48 41 40 43 45 54 45 30 22 18 11 11 9 5 3 1 357 354 352 352 350 347 353 355 353 353 353 350 347 344 342 342 339 335 334 333 332 329 328 327 327 328 328 327 326 326 326 323 314 309
142 141 143 144 141 138 138 135 131 128 125 124 123 121 117 111 106 103 99 96 93 90 87 85 83 82 81 79 76 73 69 66 63 58 53 49 40 29 25 51 89 49 35 26 20 16 7 1 359 360 357 353 351 349 348 347 345 351 355 349 342 345 346 344 342 341 341 336 333 332 332 331 329 327 327 327 327 325 323 323 322 321 321 316 310
148 148 148 148 143 140 138 133 131 129 127 126 125 121 116 111 106 103 99 96 93 90 87 85 84 82 82 80 77 75 71 67 65 60 55 51 43 33 25 29 55 41 29 19 20 19 2 354 355 360 356 351 350 347 348 348 344 350 354 344 336 340 341 339 339 339 338 335 333 332 330 329 327 326 326 325 323 320 318 318 318 316 317 316 310
152 151 151 150 145 141 137 133 131 131 131 129 126 122 116 111 108 103 99 96 92 90 87 85 84 82 81 80 78 76 73 70 66 61 57 52 48 43 37 34 25 12 12 12 14 12 1 356 352 354 355 352 348 347 348 347 347 351 350 342 338 338 336 336 337 337 334 333 333 332 329 326 325 324 323 321 318 316 316 315 314 314 313 314 310
155 154 152 150 147 142 136 133 134 134 133 131 126 123 118 112 109 104 100 96 92 89 87 86 84 82 81 80 79 77 74 72 67 61 59 54 51 48 45 40 29 15 1 359 2 356 354 355 351 346 349 351 347 346 347 343 347 352 348 341 338 334 335 338 337 334 331 330 329 328 326 325 323 322 319 317 315 314 315 313 312 311 310 311 311
159 156 153 151 148 143 137 133 136 136 134 131 127 123 118 113 109 105 101 97 93 90 89 88 86 84 84 82 81 79 75 72 69 65 61 57 53 51 48 43 35 26 1 345 352 349 344 347 349 344 343 347 346 345 343 338 345 351 346 338 335 335 339 339 335 332 330 327 326 324 323 323 322 321 319 317 316 314 313 312 310 309 307 307 308
163 159 155 153 149 143 139 136 138 138 134 131 127 122 118 113 109 105 102 98 95 93 92 92 91 89 87 84 81 79 76 72 70 67 63 59 55 50 46 41 33 24 1 341 338 344 340 337 340 342 341 344 344 341 339 337 344 349 344 333 332 337 338 334 331 331 328 325 324 321 322 323 321 322 321 319 315 312 312 310 308 308 306 305 304
166 162 158 155 151 146 141 139 140 139 135 131 126 122 117 113 111 107 104 100 96 95 95 95 95 93 89 85 82 79 76 73 69 65 61 57 53 48 39 32 28 16 2 346 328 328 336 335 333 336 341 342 341 340 338 338 341 344 341 334 332 334 332 327 328 329 326 323 322 321 322 323 323 322 320 317 314 311 310 309 309 308 306 305 304
167 164 161 157 154 150 143 143 143 141 136 132 126 122 118 115 113 110 106 102 98 97 98 99 99 96 91 87 83 79 76 71 66 61 56 51 46 42 32 23 21 14 1 351 333 324 331 338 337 335 338 339 340 341 340 337 338 339 337 333 332 331 329 326 326 326 325 324 322 322 323 322 321 320 317 315 313 312 310 309 309 307 305 304 302
169 168 165 160 158 154 148 147 147 143 139 133 128 124 120 118 115 112 108 104 101 99 100 102 101 98 94 89 84 79 74 68 64 58 52 46 40 34 27 20 16 13 2 350 340 328 327 334 338 336 338 340 339 341 341 336 335 335 333 331 331 330 328 325 321 322 324 324 322 323 323 322 320 318 315 314 312 311 309 307 307 306 304 302 300
171 171 169 164 162 158 153 151 149 147 143 137 132 128 124 121 117 114 110 106 102 100 102 105 103 99 94 89 83 76 70 65 60 54 48 42 36 28 20 16 11 7 3 350 339 332 326 328 335 338 339 340 339 339 338 335 334 333 331 331 331 329 327 324 321 321 323 324 323 324 323 322 320 317 314 312 311 310 309 307 305 304 303 301 299
172 173 171 168 166 162 158 155 152 151 147 140 136 132 129 127 121 116 112 107 103 101 102 105 104 100 94 87 80 72 66 61 55 49 43 35 29 24 14 9 7 2 358 351 341 335 327 325 332 337 338 338 337 337 339 337 336 334 331 331 331 329 328 327 326 326 324 323 323 324 324 323 321 318 315 313 311 311 309 307 305 303 302 301 299
173 173 172 170 169 166 162 159 156 155 151 144 139 135 132 129 125 120 116 109 105 102 101 103 102 98 92 85 76 67 60 56 50 43 37 31 25 21 14 8 5 358 353 351 345 338 331 325 328 334 338 338 334 337 342 341 337 335 335 335 333 330 328 329 331 331 327 326 327 327 326 324 321 318 317 316 313 312 312 310 306 303 302 300 298
175 175 174 172 171 170 167 163 160 158 155 149 142 137 133 131 128 124 120 114 109 105 102 103 101 96 89 81 72 62 55 50 46 38 31 28 23 18 14 8 3 357 352 350 346 340 333 328 329 334 338 338 336 337 342 342 338 337 339 338 336 334 332 332 335 335 331 329 328 328 327 325 322 321 320 319 317 316 315 312 309 306 304 302 298
177 176 176 174 174 174 171 168 164 162 159 154 146 140 137 135 132 129 125 120 114 109 107 105 100 94 86 77 67 57 51 45 40 34 28 24 19 15 11 5 360 355 350 347 344 340 334 331 334 337 337 338 339 339 341 341 340 341 341 337 335 338 339 336 335 335 334 331 328 329 329 325 323 323 321 319 318 317 316 313 310 307 304 302 299
180 180 178 178 177 177 175 171 168 166 163 159 152 145 142 141 139 136 131 126 121 115 111 107 101 93 84 73 64 55 50 46 40 33 27 22 18 13 8 3 358 353 350 346 343 340 337 335 337 339 338 339 343 342 341 344 345 344 342 337 330 332 336 335 332 331 333 333 331 331 331 329 326 325 324 321 319 318 316 313 310 307 304 302 299
183 182 181 181 179 178 177 174 172 170 167 163 158 152 149 149 147 145 140 135 130 123 116 110 102 94 84 72 63 58 54 48 41 35 27 21 18 13 6 2 358 353 350 347 343 340 338 338 340 341 339 341 345 345 343 345 344 338 336 334 329 328 330 331 332 333 335 335 333 331 332 330 327 325 324 322 321 319 317 314 311 308 304 300 298
185 184 183 183 182 180 179 177 176 174 171 167 162 157 156 156 155 153 149 145 138 130 122 114 106 97 88 75 63 57 53 46 40 34 26 20 17 13 8 5 2 357 352 347 343 340 338 339 340 341 339 341 344 343 341 341 339 334 333 333 331 331 330 328 332 338 341 338 333 330 331 331 327 324 323 321 321 320 317 313 309 307 304 301 299
186 186 184 184 183 183 181 180 180 178 175 171 167 166 165 166 167 163 159 153 146 137 127 117 111 102 93 80 61 51 46 39 34 27 21 18 16 14 13 13 10 6 1 351 341 338 337 337 337 338 339 338 339 340 340 340 338 334 333 332 333 333 332 330 332 337 340 340 335 329 329 331 328 323 321 319 319 319 316 311 308 306 306 304 301
187 186 186 186 186 185 184 184 183 182 180 177 175 175 176 178 182 179 172 165 156 148 137 124 113 104 98 85 62 48 39 33 27 20 16 16 15 16 19 20 17 14 11 4 353 344 338 335 333 335 338 335 334 338 341 339 335 332 332 334 336 334 331 332 334 333 334 337 336 332 329 331 329 323 319 317 318 318 315 312 310 308 308 306 303
189 188 188 188 188 187 187 187 186 184 183 183 182 182 183 186 192 192 188 181 172 164 155 139 119 103 98 82 61 47 35 28 22 17 16 14 15 20 24 23 20 15 13 13 9 1 352 342 330 330 336 334 330 335 341 339 333 331 332 334 335 334 330 332 333 331 332 337 338 334 330 330 330 323 317 316 317 318 316 315 314 310 309 308 305
190 190 190 190 190 190 190 189 188 186 186 185 184 183 184 188 193 195 197 196 189 180 172 161 140 112 96 80 66 46 30 23 17 16 16 13 13 19 23 22 21 19 16 14 12 9 6 360 342 333 337 337 332 336 345 345 336 331 331 329 329 331 327 326 330 332 334 339 340 335 329 329 330 324 319 320 320 318 318 318 317 315 312 310 307
191 191 191 191 192 192 192 192 190 189 188 186 185 184 185 188 191 192 197 201 196 191 187 181 167 130 100 85 67 43 27 17 11 13 14 12 14 17 19 19 22 22 20 16 13 11 11 9 0 350 347 345 342 343 349 351 345 342 338 328 323 325 324 325 332 336 338 340 342 340 331 328 331 327 323 325 323 320 320 321 321 320 316 312 309
192 192 192 193 194 194 194 193 192 192 190 189 187 187 188 191 192 194 201 202 198 195 196 194 187 164 130 101 69 37 23 13 7 8 11 12 15 16 16 18 19 18 14 14 17 17 14 12 9 3 357 353 350 348 351 355 354 351 344 334 331 332 329 332 339 342 341 342 345 344 335 329 334 332 326 328 326 323 324 326 325 323 320 316 313
191 192 193 193 195 196 194 194 194 194 193 190 190 190 192 195 197 201 205 202 198 198 200 202 196 187 183 151 79 32 15 8 2 3 7 12 16 16 15 15 15 11 6 9 14 16 15 14 12 9 7 3 360 359 359 1 2 359 349 338 340 340 335 338 344 344 342 341 347 347 338 331 335 334 330 330 329 325 327 330 329 326 323 321 319
191 192 193 194 195 196 196 195 195 196 195 193 192 192 195 200 202 203 202 199 200 202 203 205 203 197 207 207 118 28 6 1 357 357 3 12 16 16 13 11 9 4 4 7 9 10 11 11 10 11 12 10 8 8 7 7 8 6 358 344 340 339 337 338 341 341 339 341 349 349 341 335 338 338 335 334 332 331 333 333 331 329 328 326 323
192 191 193 194 194 195 197 196 196 197 197 195 194 195 197 200 202 203 198 198 204 205 202 201 202 201 211 220 214 352 351 352 349 350 358 8 14 14 11 8 1 355 359 5 7 6 7 8 9 10 11 12 11 9 8 8 8 8 4 356 345 338 336 337 338 340 339 342 350 351 344 337 339 340 339 338 333 333 336 335 333 333 333 330 325